OPS 4682 DEB, 55262

Orbit data source: Space-Track

OPS 4682 DEB, 55262 is space debris in LEO originally from a launch on Sat, 03 Apr 1965 UTC launched from the Air Force Western Test Range (AFWTR). Debris objects in space refer to the collection of defunct objects orbiting the Earth. Examples of debris include non-operational satellites, rocket bodies, and fragments generated from explosions, collisions, or faulty payload assembly.

Loading next visibility...
Identifier
55262, 1965-027HN
Orbit
LEO
Country
Flag of USUS
Related business
Manufacturer
Unknown
Mission
Spacecraft
Bus & Motor
Unknown
Mass
Unknown
Launch date (UTC)
1965-04-03 (61 years ago)
Launch vehicle
Unknown
Launch site
Air Force Western Test Range (AFWTR)
Object type
Payload
Rocket body
Debris
Shape & HBR
Unknown shape, 0.1 m
Radar Cross Section
Medium (>0.1 m² and <1 m²)

Expand to show TLE details & history
Last TLE update: 2 days ago

TLE from 2 days ago
0 OPS 4682 DEB
1 55262U 65027HN  26262.25511097 -.00000038  00000-0 -15624-3 0  9992
2 55262  90.2561  13.7286 0028553 245.7854 114.0281 12.96357790515096
Epoch: 2026-09-19T06:07Z
TLE epoch observation values (Epoch: 2026-09-19T06:07:21.587Z)
Latitude
-0.00007°
Longitude
-76.27762°
Altitude
1,288.222 km
Speed
7.208 km/s
True Right ascension
00h 54m 54s
True Declination
0° 00' 00"
Sunlit
Object was in full shadow at epoch
Visualization orbit readout
Latitude
Unknown
Longitude
Unknown
Altitude
Unknown
Speed
Unknown
Apparent Right ascension
Unknown
Apparent Declination
Unknown
Sunlit
N/A
Visualization observer readout
Local Sidereal Time
12:11:39
Azimuth
Unknown
Elevation
Unknown
Doppler factor
Unknown
Orbital elements
Apogee altitude
1,295.371 km
Perigee altitude
1,251.675 km
Semi-major axis
7,651.66 km
Eccentricity
0.00286
Inclination
90.2561°
RAAN
13.7286°
Arg. of periapsis
245.7854°
True anomaly
114.32651°
Mean anomaly
114.0281°
Eccentric anomaly
114.17735°
Mean motion
3.24272 °/min
Orbital period
111.02 mins
BSTAR
-0.00015624
Loading maneuver chart data...
Computing Atmospheric mass density...
Loading historical data...
Loading historical data...
Loading historical data...
Loading historical data...
Loading historical data...
Loading historical data...
Loading historical data...

Documentation

Showing up to 5 results
|